Regional Weather Roundup
Issued by NWS Sterling, VA

Current Version | Previous Version | Text Only | Print | Product List | Glossary On
Versions: 1 2 3 4 5 6 7 8 9 10 11 12 13 14 15 16 17 18 19 20 21 22 23 24 25 26 27 28 29 30 31 32 33 34 35 36 37 38 39 40 41 42 43 44 45 46 47 48 49 50
000
ASUS41 KLWX 240210
RWRLWX

REGIONAL WEATHER ROUNDUP
NATIONAL WEATHER SERVICE BALTIMORE MD/WASHINGTON DC
1000 PM EDT TUE APR 23 2019

Note: "FAIR" indicates few or no clouds below 12,000 feet
with no significant weather and/or obstructions to visibility.
 TC=TEMPERATURE CELSIUS

 * =Non NWS site. Station does not report precipitation (e.g. rain,
    snow, etc.), thunder, or fog.

DCZ001-MDZ009-015-VAZ040>042-051-053>054-240300-
WASHINGTON METRO

CITY           SKY/WX    TMP DP  RH WIND       PRES   REMARKS
WASHINGTON NAT MOCLDY    71  54  54 S9        29.81S
DULLES         MOCLDY    72  50  45 S7        29.80F
ANDREWS AFB    CLEAR     67  52  57 S8        29.81F
QUANTICO       FAIR      71  60  68 SW5       29.82S
LEESBURG*      FAIR      73  54  49 SW6       29.81F
MANASSAS*      FAIR      64  56  75 S5        29.81F
GAITHERSBURG*  MOCLDY    75  51  43 S7        29.82F

$$

MDZ006>007-011-014-240300-
BALTIMORE METRO

CITY           SKY/WX    TMP DP  RH WIND       PRES   REMARKS
BWI AIRPORT    MOCLDY    67  54  63 SE5       29.81S
MARTIN STATE   FAIR      68  57  68 SE8       29.83F
ANNAPOLIS      FAIR      68  56  65 MISG      29.81F

$$

MDZ012-015-019>023-240300-
MARYLAND EASTERN SHORE

CITY           SKY/WX    TMP DP  RH WIND       PRES   REMARKS
OCEAN CITY     FAIR      64  54  69 SW16G25   29.89S
SALISBURY      FAIR      63  52  67 S8        29.87F
CAMBRIDGE*     CLEAR     68  55  64 S8        29.85S
EASTON*        CLEAR     70  54  56 S9        29.87F

$$

MDZ017>025-240300-
SOUTHERN MARYLAND

CITY           SKY/WX    TMP DP  RH WIND       PRES   REMARKS
PATUXENT RIVER FAIR      69  56  62 S7        29.83F
ST INIGOES     FAIR      67  56  67 SE7       29.84S
LEONARDTOWN*   FAIR      68  54  60 S5        29.85F

$$

MDZ003>005-240300-
NORTH CENTRAL MARYLAND

CITY           SKY/WX    TMP DP  RH WIND       PRES   REMARKS
FREDERICK*     CLOUDY    70  55  60 N3        29.83S
HAGERSTOWN APT CLOUDY    67  56  67 E6        29.82F

$$

MDZ501>502-240300-
WESTERN MARYLAND

CITY           SKY/WX    TMP DP  RH WIND       PRES   REMARKS
OAKLAND*       FAIR      59  52  77 W7        29.92F
CUMBERLAND*    NOT AVBL

$$

VAZ025>031-240300-
SHENANDOAH VALLEY

CITY           SKY/WX    TMP DP  RH WIND       PRES   REMARKS
WINCHESTER*    CLOUDY    72  50  46 NE5       29.84R
FRONT ROYAL*   FAIR      68  50  52 CALM      29.81F
LURAY*         FAIR      70  46  43 S3        29.83S
NEW MARKET*    FAIR      64  49  58 W5        29.83S
STAUNTON*      FAIR      68  48  48 W5        29.89S
WAYNESBORO*    FAIR      73  48  42 W6        29.89R

$$

WVZ021-048>050-054>055-240300-
EASTERN WEST VIRGINIA PANHANDLE

CITY           SKY/WX    TMP DP  RH WIND       PRES   REMARKS
MARTINSBURG    FAIR      69  54  58 N5        29.81F
PETERSBURG*    FAIR      71  45  38 W3        29.84S

$$

VAZ036>039-050-240300-
CENTRAL FOOTHILLS

CITY           SKY/WX    TMP DP  RH WIND       PRES   REMARKS
CHARLOTTESVILL FAIR      75  51  43 VRB3      29.84R
CULPEPER*      FAIR      72  50  46 SW5       29.83S
ORANGE*        FAIR      70  52  52 SW3       29.83S
GORDONSVILLE*  FAIR      72  53  51 SW5       29.83S
WARRENTON*     FAIR      73  48  41 S6        29.81F

$$

VAZ055>057-240300-
NORTH AND CENTRAL PIEDMONT

CITY           SKY/WX    TMP DP  RH WIND       PRES   REMARKS
FREDERICKSBRG* FAIR      72  55  55 S7        29.81S
STAFFORD*      FAIR      71  53  53 S3        29.86S

$$

NCZ024-NYZ072-PAZ021-071-VAZ022-071-240300-
OTHER REGIONAL OBSERVATIONS

CITY           SKY/WX    TMP DP  RH WIND       PRES   REMARKS
NEW YORK CITY  MOCLDY    62  52  69 CALM      29.80F
PHILADELPHIA   LGT RAIN  71  50  47 S9        29.83S
PITTSBURGH     MOCLDY    64  52  64 NW13G23   29.87R
ROANOKE        FAIR      75  44  33 W10       29.93R
RICHMOND       FAIR      70  54  56 S10       29.86S
RALEIGH        MOCLDY    71  55  56 S9        29.94S

$$

ANZ530>537-240300-
MARINE OBSERVATIONS

STATION/POSITION TIME  TEMP    WIND        PRES
                       AIR SEA DIR/SP/G
                 (UTC) (F)     (DEG/KT/KT) (MB)
THOMAS PT LIGHT  0200   66 62  150/ 18/ 19 1010.2F
BALT KEY BRIDGE  0142   68     110/  8/  9 1009.6R
COVE POINT       0142   64     190/ 12/ 14 1011.0F
LEWISETTA        0142   69 66  190/  7/  8 1010.6F
SOLOMONS ISLAND  0142   64 62   90/  6/  7 1009.8F

$$




USA.gov is the U.S. government's official web portal to all federal, state and local government web resources and services.